Content
SEND FEEDBACK

Daily
Averages
Monthly
Summary
United States of America

BOYES HOT SPRINGS, CALIFORNIA


Home > North America > United States > California
Elevation: 7 feet     Latitude: 38 17N     Longitude: 122 27W

WEATHER
 
SELECT A DAY
Number of Records: 71,797;   Date Range: 4/19/11 - 8/26/14
 
SHARE

PRINT THIS DATA

[ ← Previous Day ]
WEATHER ALMANAC - JANUARY 31, 2013
[ Next Day → ]
[ °C ]   °F
Weather ElementAverageHighLow
Temperature45.3 °F62.6 °F (1:15 pm)32 °F (3:35 am)
Dewpoint40.6 °F46.4 °F (11:55 am)32 °F (3:35 am)
Humidity86.1 %100 % (12:35 am)52 % (1:55 pm)
Barometer30.26 in30.32 in (8:35 am)30.20 in (5:35 pm)
Wind Speed1.7 mph6.9 mph (12:55 pm)
Weather ElementAverage
Visibility8.9 mi
Wind DirectionENE (82 °)

Weather ElementTotal
Precipitation---
Heating Degree Days17.7 (Base 65)
Averaged from 69 records on January 31, 2013
WEATHER CONDITIONS BREAKOUT
WIND DIRECTION BREAKOUT
WEATHER BY HOUR - JANUARY 31, 2013
[ °C ]   °F
Local TimeTemperatureDewpointHumidityBarometerVisibilityWind DirectionWind SpeedGust SpeedPrecipitationEventsConditions
12:35 AM35.6 °F35.6 °F100 %30.30 in10.0 miCalmClear
12:55 AM37.4 °F37.4 °F100 %30.30 in10.0 miCalmClear
1:15 AM35.6 °F35.6 °F100 %30.30 in10.0 miCalmClear
1:35 AM37.4 °F37.4 °F100 %30.30 in10.0 miCalmClear
1:55 AM35.6 °F35.6 °F100 %30.30 in10.0 miCalmClear
2:15 AM35.6 °F35.6 °F100 %30.30 in6.0 miCalmClear
2:35 AM35.6 °F35.6 °F100 %30.30 in5.0 miCalmClear
2:55 AM33.8 °F33.8 °F100 %30.29 in8.0 miCalmClear
3:15 AM35.6 °F35.6 °F100 %30.29 in9.0 miCalmClear
3:35 AM32.0 °F32.0 °F100 %30.29 in10.0 miCalmClear
3:55 AM33.8 °F33.8 °F100 %30.29 in10.0 miCalmClear
4:15 AM33.8 °F33.8 °F100 %30.29 in10.0 miNorth (350°)3.5 mphClear
4:35 AM33.8 °F33.8 °F100 %30.28 in10.0 miNW (310°)3.5 mphClear
4:55 AM35.6 °F35.6 °F100 %30.29 in10.0 miWNW (290°)3.5 mphClear
5:15 AM35.6 °F35.6 °F100 %30.29 in3.0 miCalmClear
5:55 AM32.0 °F32.0 °F100 %30.29 in9.0 miCalmClear
6:15 AM32.0 °F32.0 °F100 %30.30 in5.0 miCalmPartly Cloudy
6:35 AM32.0 °F32.0 °F100 %30.30 in0.8 miCalm
6:55 AM32.0 °F32.0 °F100 %30.30 in3.0 miCalmClear
7:15 AM32.0 °F32.0 °F100 %30.31 in8.0 miCalmClear
7:35 AM32.0 °F32.0 °F100 %30.31 in7.0 miCalmClear
7:55 AM33.8 °F33.8 °F100 %30.31 in7.0 miCalmClear
8:15 AM35.6 °F35.6 °F100 %30.31 in9.0 miWest (280°)3.5 mphClear
8:35 AM37.4 °F37.4 °F100 %30.32 in10.0 miCalmClear
8:55 AM39.2 °F39.2 °F100 %30.32 in10.0 miWNW (290°)4.6 mphClear
9:15 AM41.0 °F41.0 °F100 %30.32 in10.0 miWNW (300°)3.5 mphClear
9:35 AM44.6 °F42.8 °F93 %30.32 in10.0 miNW (310°)3.5 mphClear
9:55 AM46.4 °F44.6 °F93 %30.32 in10.0 miWNW (290°)5.8 mphClear
10:15 AM48.2 °F44.6 °F87 %30.32 in9.0 miWNW (300°)3.5 mphClear
10:35 AM50.0 °F44.6 °F82 %30.31 in10.0 miCalmClear
10:55 AM51.8 °F44.6 °F76 %30.31 in10.0 miCalmClear
11:15 AM53.6 °F44.6 °F72 %30.30 in10.0 miCalmClear
11:35 AM55.4 °F44.6 °F67 %30.29 in10.0 miSSE (160°)3.5 mphClear
11:55 AM57.2 °F46.4 °F67 %30.28 in10.0 miSE (130°)4.6 mphClear
12:15 PM57.2 °F46.4 °F67 %30.28 in10.0 miESE (120°)4.6 mphClear
12:35 PM59.0 °F46.4 °F63 %30.26 in10.0 miSSE (150°)4.6 mphClear
12:55 PM60.8 °F46.4 °F59 %30.26 in10.0 miSE (130°)6.9 mphClear
1:15 PM62.6 °F46.4 °F55 %30.25 in10.0 miCalmClear
1:35 PM62.6 °F46.4 °F55 %30.24 in10.0 miSE (130°)3.5 mphClear
1:55 PM62.6 °F44.6 °F52 %30.23 in10.0 miSSE (150°)4.6 mphClear
2:15 PM62.6 °F46.4 °F55 %30.23 in10.0 miCalmClear
2:35 PM62.6 °F46.4 °F55 %30.22 in10.0 miSSE (160°)4.6 mphClear
2:55 PM62.6 °F46.4 °F55 %30.22 in10.0 miSE (140°)3.5 mphClear
3:15 PM62.6 °F46.4 °F55 %30.22 in10.0 miESE (120°)4.6 mphClear
3:35 PM62.6 °F46.4 °F55 %30.21 in10.0 miCalmClear
3:55 PM62.6 °F46.4 °F55 %30.21 in10.0 miSE (130°)4.6 mphClear
4:15 PM62.6 °F46.4 °F55 %30.21 in10.0 miSE (130°)4.6 mphClear
4:35 PM62.6 °F46.4 °F55 %30.21 in10.0 miESE (120°)3.5 mphClear
4:55 PM59.0 °F46.4 °F63 %30.21 in10.0 miESE (120°)3.5 mphClear
5:15 PM57.2 °F46.4 °F67 %30.21 in10.0 miSE (130°)3.5 mphClear
5:35 PM55.4 °F46.4 °F72 %30.20 in10.0 miESE (120°)3.5 mphClear
5:55 PM53.6 °F46.4 °F77 %30.20 in10.0 miENE (70°)4.6 mphClear
6:15 PM50.0 °F46.4 °F87 %30.20 in10.0 miENE (70°)4.6 mphClear
6:35 PM50.0 °F46.4 °F87 %30.21 in10.0 miCalmClear
6:55 PM46.4 °F44.6 °F93 %30.21 in10.0 miNW (310°)3.5 mphPartly Cloudy
7:15 PM46.4 °F44.6 °F93 %30.21 in10.0 miCalmScattered Clouds
7:35 PM44.6 °F42.8 °F93 %30.21 in10.0 miNorth (350°)3.5 mphMostly Cloudy
7:55 PM44.6 °F42.8 °F93 %30.21 in10.0 miCalmScattered Clouds
8:15 PM42.8 °F41.0 °F93 %30.21 in10.0 miCalmScattered Clouds
8:35 PM42.8 °F41.0 °F93 %30.21 in10.0 miCalmScattered Clouds
8:55 PM41.0 °F41.0 °F100 %30.21 in10.0 miCalmMostly Cloudy
9:15 PM41.0 °F41.0 °F100 %30.21 in10.0 miCalmScattered Clouds
9:35 PM41.0 °F41.0 °F100 %30.21 in10.0 miCalmScattered Clouds
10:15 PM39.2 °F39.2 °F100 %30.21 in8.0 miCalmMostly Cloudy
10:35 PM39.2 °F39.2 °F100 %30.21 in4.0 miCalmMostly Cloudy
10:55 PM39.2 °F39.2 °F100 %30.21 in6.0 miCalmOvercast
11:15 PM39.2 °F39.2 °F100 %30.22 in7.0 miCalmOvercast
11:35 PM39.2 °F39.2 °F100 %30.21 in5.0 miCalmMostly Cloudy
11:55 PM37.4 °F37.4 °F100 %30.21 in5.0 miCalmScattered Clouds
Hourly data recorded from KO69, located miles away from Boyes Hot Springs, California







STORIES FROM OUR PARTNERS